Regional Weather Roundup
Issued by NWS

Home | Current Version | Previous Version | Text Only | Print | Product List | Glossary On
Versions: 1 2 3 4 5 6 7 8 9 10 11 12 13 14 15 16 17 18 19 20 21 22 23 24 25 26 27
000
ASCA42 TJSJ 200110
RWRPR
PUERTO RICO/U.S. VIRGIN ISLANDS HOURLY WEATHER ROUNDUP
NATIONAL WEATHER SERVICE SAN JUAN PR
900 PM AST SAT JUN 19 2021

PRZ001>002-007>008-010-200200-
PUERTO RICO

CITY           SKY/WX    TMP DP  RH WIND       PRES   REMARKS
SAN JUAN LMM   PTCLDY    79  75  89 E8        30.12
AGUADILLA      PTCLDY    81  75  83 E15G21    30.13
CEIBA          CLOUDY    81  79  94 NE9       30.13R
$$

VIZ001>002-200200-
U.S. VIRGIN ISLANDS

CITY           SKY/WX    TMP DP  RH WIND       PRES   REMARKS
CHARLOTTE AMA  CLEAR     82  75  78 E6        30.10
CHRISTIANSTED  MOCLDY    81  75  83 NE9       30.11
$$

HOURLY WEATHER ROUNDUP FOR THE NEWS MEDIA

CITY           SKY/WX    TMP DP  RH WIND       PRES   REMARKS
DALLAS         PTCLDY    92  60  34 SE10      29.80R HX  91
LOS ANGELES    PTSUNNY   64  59  83 W12       29.77S


USA.gov is the U.S. government's official web portal to all federal, state and local government web resources and services.